Location: Podia
(1.5569°N, 32.3469°E)
Time: 20:46:12
(UTC+00:00)

S-56A Canister/Altair - Pass Details

Date: 03 October 2020
Orbit: 632 x 2500 km, 38.9° (Epoch: 20 October)

Event Time Altitude Azimuth Distance (km) Brightness Sun altitude
Rises 16:59:53 0° 328° (NNW) 5,667 12.3 -20.2°
Reaches altitude 10° 17:05:06 10° 341° (NNW) 4,352 11.5 -21.5°
Maximum altitude 17:13:19 23° 28° (NNE) 2,851 10.1 -23.5°
Enters shadow 17:14:35 22° 39° (NE) 2,791 10.0 -23.8°
